Dewpoint
10 10 7 6 7 0 -1 1 5 6 6 6 5 1 -0 1 2 2 3 3 3 4 4 4 4 5 9 10 10 10 11 10 11 10 10 10 11 10 5 3 4 0 6
7 6 6 7 4 1 1 3 5 6 6 5 5 5 4 3 3 2 1 0 0 1 2 2 4 9 10 10 9 9 9 8 8 9 9 10 10 10 10 7 5 2 -0
6 4 7 7 2 2 3 5 6 6 5 4 3 7 6 6 4 1 0 -2 -0 1 2 3 7 10 9 9 10 10 9 7 6 6 7 11 10 10 10 10 10 10 8
-1 1 6 6 4 4 5 6 6 5 2 -1 -1 3 4 5 5 5 5 4 4 4 4 5 9 7 8 9 10 8 7 6 0 2 7 7 7 8 10 10 11 11 10
-4 4 9 8 7 6 6 6 4 -0 -6 -7 -4 2 1 2 4 5 5 5 5 5 6 7 7 6 7 8 6 6 5 1 -8 -8 -5 -2 -0 4 -2 5 9 9 9
3 9 9 9 8 7 6 4 -2 -12 -15 -14 -10 -6 -4 -1 -0 0 -2 -6 -9 -9 -3 5 5 5 6 6 6 5 1 -6 -9 -5 3 7 7 7 3 -0 -2 3 8
7 9 10 9 6 6 4 -2 -15 -15 -14 -15 -15 -14 -10 -7 -8 -11 -11 -10 -11 -10 -5 4 4 5 5 5 4 3 2 -6 -7 -0 5 6 7 8 8 7 6 7 5
8 9 10 8 5 4 -2 -14 -16 -12 -12 -12 -13 -14 -13 -11 -10 -10 -11 -11 -10 -7 1 3 3 3 4 4 4 4 3 1 -5 -4 5 6 7 7 7 6 6 6 7
9 10 9 7 3 -0 -11 -16 -12 -10 -9 -8 -8 -8 -9 -9 -10 -11 -9 -6 -4 -4 0 2 3 3 3 3 4 4 4 3 -0 -5 -3 4 6 7 7 6 5 5 5
7 8 7 4 1 -6 -14 -11 -9 -6 -5 -6 -8 -10 -11 -11 -11 -10 -5 -2 -1 -0 -1 -0 2 2 2 3 3 3 3 2 1 -0 -3 -4 3 5 5 4 6 5 5
7 3 4 -0 -2 -11 -10 -5 -0 -0 -3 -6 -9 -12 -11 -11 -8 -4 -3 -2 -2 -0 0 -1 -1 1 1 2 2 1 0 0 0 -1 -2 -3 -2 -1 -2 -3 3 5 5
8 6 -2 -2 -4 -12 -8 1 3 3 2 -3 -11 -11 -9 -4 -1 -1 -0 -1 -2 -3 -3 -3 -3 -3 -2 -1 -0 -1 -1 -1 -1 -2 -2 -3 -3 2 2 2 2 2 2
8 6 -2 -3 -6 -11 -6 2 3 3 3 1 -10 -8 -6 -3 -2 -1 -1 -1 -2 -2 -3 -2 -2 -1 -0 0 0 -1 -2 -2 -2 -3 -3 -4 -4 -0 1 0 1 2 1
7 6 0 -4 -7 -5 0 1 2 2 2 3 -5 -4 -4 -2 -1 -1 -1 -1 -1 -0 -1 -0 0 0 1 0 0 -0 -0 -0 -0 -3 -3 -3 -5 -5 -1 1 0 1 1
6 5 -0 -3 -6 1 2 2 2 3 2 -0 -3 -3 -3 -2 -2 -0 -1 -1 -1 -1 -0 1 1 1 1 1 1 0 -0 -0 -0 -1 -2 -3 -4 -5 -3 -0 -1 1 1
3 2 -0 -0 2 3 3 3 3 -1 1 -2 -1 -2 -2 -1 -1 -0 -1 -1 -3 -2 -0 2 2 2 2 0 1 0 -0 -1 -0 -2 -2 -4 -4 -4 -4 -4 -3 -1 -0
1 -0 -2 1 2 3 4 4 3 3 -2 -3 -2 -2 -2 -2 -2 -1 -1 -3 -2 -1 -0 1 1 1 0 -1 0 0 0 -1 -2 -2 -3 -4 -4 -4 -5 -6 -6 -6 -2
0 -2 -2 1 3 3 4 4 3 3 2 -3 -3 -2 -1 -1 -1 -0 -2 -3 -1 -0 -1 0 -0 -1 -1 0 -3 -5 -1 -1 -1 -2 -4 -4 -5 -5 -6 -7 -9 -12 -3
1 -1 -2 -1 3 4 3 3 3 3 1 -5 -4 -2 -1 -0 -0 -1 -3 -3 -1 0 1 0 0 -0 1 0 -4 -6 -1 -1 -1 -4 -4 -5 -7 -9 -10 -11 -13 -13 -5
1 1 -2 -3 3 4 3 3 3 3 2 0 -6 -2 -2 -1 -2 -2 -3 -2 0 1 -0 1 1 1 1 -2 -11 -5 -2 -2 -3 -4 -7 -9 -11 -12 -12 -13 -12 -12 -9
1 1 -1 -3 2 4 3 3 3 3 3 -3 -7 -4 -2 -3 -2 -1 -3 -2 -2 1 0 1 1 1 1 -3 -13 -5 -4 -6 -6 -8 -10 -11 -12 -12 -11 -11 -11 -10 -8
2 2 1 -3 -1 2 3 2 2 2 2 -0 -4 -5 -3 -3 -3 -2 -4 -2 1 1 1 1 2 1 1 -4 -16 -23 -6 -6 -8 -11 -11 -12 -11 -11 -11 -10 -10 -10 -9
2 3 3 -3 -3 -2 1 4 3 4 3 2 -1 -5 -5 -3 -3 -3 -3 -0 1 1 2 1 1 1 1 -7 -25 -33 -23 -16 -15 -11 -12 -14 -12 -11 -10 -9 -10 -9 -9
3 3 3 1 -4 -4 1 4 4 3 3 2 -1 -1 -5 -3 -3 -4 -0 1 1 2 1 2 2 1 0 -12 -32 -29 -23 -17 -15 -15 -13 -15 -12 -10 -9 -9 -9 -9 -9
2 3 4 3 -2 -5 -1 2 4 4 3 3 1 1 -3 -2 -4 -4 0 1 1 2 1 2 2 1 -2 -18 -35 -31 -25 -18 -15 -12 -12 -13 -13 -10 -9 -9 -9 -9 -10
3 3 5 3 -1 -4 -6 -0 3 3 4 4 2 3 -1 -3 -5 -2 1 1 1 2 2 2 2 1 -6 -27 -31 -26 -22 -19 -16 -14 -13 -11 -11 -12 -10 -9 -9 -9 -9
Wind_Speed
18 14 11 8 6 7 9 11 11 11 12 11 11 12 12 12 12 12 12 11 12 14 15 15 16 17 16 15 16 16 19 20 15 16 18 18 17 15 15 14 14 13 12
15 14 12 9 7 9 10 10 9 9 9 9 9 10 10 11 12 12 11 11 13 15 16 16 17 18 16 14 14 17 18 20 17 12 13 17 18 17 15 14 14 14 11
15 15 13 9 9 9 10 9 8 7 7 7 9 10 10 11 12 12 12 13 17 17 17 18 19 17 15 13 12 16 18 19 17 12 10 19 17 18 19 16 14 13 12
15 16 14 11 10 9 9 8 7 7 6 7 10 10 11 13 14 14 15 17 19 20 20 20 19 17 16 14 14 16 16 18 18 13 12 13 13 15 15 15 16 18 16
17 17 14 11 9 9 7 6 6 7 8 10 12 12 13 14 15 16 17 17 18 19 21 22 20 20 18 18 14 14 16 17 16 17 19 20 19 19 13 12 16 13 15
19 16 14 10 8 8 7 7 7 10 11 11 12 13 14 15 16 16 16 17 19 20 22 24 24 20 17 15 13 13 19 20 18 20 23 25 24 22 20 18 17 15 14
16 16 13 10 8 8 7 8 10 13 14 14 15 15 16 17 18 20 23 25 25 26 27 27 25 20 16 13 14 19 20 20 19 21 23 22 23 22 22 23 21 21 19
11 16 13 10 9 10 10 11 13 15 16 16 18 20 21 23 24 24 24 26 26 27 27 25 22 17 16 16 16 17 18 19 19 19 21 22 22 22 21 21 21 20 20
13 14 12 11 12 12 13 15 16 17 18 19 20 21 23 23 23 24 26 26 27 27 25 22 20 15 13 13 12 14 16 18 18 18 17 17 17 18 19 19 18 17 18
11 14 13 13 14 15 17 18 19 20 21 22 21 20 21 22 23 23 23 22 22 21 19 19 17 14 10 11 11 11 12 14 15 16 17 15 16 18 18 17 17 15 14
11 14 15 17 17 17 20 23 24 23 21 21 21 21 23 24 25 24 21 19 18 17 15 15 14 11 8 7 9 8 11 13 13 16 17 18 17 17 16 15 14 17 16
17 13 17 19 20 20 23 27 24 21 19 21 21 24 25 25 23 20 18 16 16 16 14 12 13 13 10 8 9 10 12 14 14 16 17 18 19 20 21 19 17 16 13
15 15 16 20 21 22 26 25 22 21 20 20 22 22 22 20 19 17 14 12 12 12 11 10 11 13 13 15 15 16 15 17 17 17 17 19 20 20 20 22 20 20 17
19 15 15 21 22 23 22 21 19 17 18 19 21 21 20 20 18 15 12 10 9 9 9 9 9 10 11 12 13 15 17 17 19 17 18 20 18 22 21 20 21 22 21
18 16 17 21 23 23 19 18 16 16 16 18 20 18 17 16 14 13 11 8 7 6 7 7 6 8 10 8 7 8 11 14 18 17 16 19 19 21 21 19 20 21 22
18 17 19 21 23 23 19 17 15 15 20 21 20 18 17 15 14 13 9 7 8 5 4 3 3 5 6 9 8 4 5 9 16 12 14 16 16 18 18 20 21 19 18
18 18 19 21 22 22 20 20 17 17 16 18 19 18 19 18 15 12 10 8 4 2 2 1 3 3 1 7 6 5 1 4 7 10 11 9 12 14 17 20 20 22 18
20 20 20 24 25 21 24 23 19 16 13 18 17 19 20 17 13 10 9 6 3 0 3 5 5 6 5 10 7 8 4 5 2 6 6 8 10 13 16 19 22 22 14
22 19 23 27 26 22 25 23 19 16 15 17 19 20 18 15 12 11 9 5 1 2 4 4 5 6 9 11 11 9 2 7 5 4 4 6 10 13 16 19 21 21 14
24 20 22 29 29 27 26 24 20 17 15 14 18 19 18 15 13 11 9 5 3 2 2 3 6 9 9 11 9 3 7 7 5 2 2 5 9 13 16 18 20 18 14
28 24 24 30 33 31 29 27 26 23 18 16 18 18 18 15 12 10 9 7 3 1 0 3 6 8 12 12 6 3 8 6 2 1 2 5 9 12 14 18 20 17 11
33 29 25 29 35 30 31 29 26 24 19 15 17 19 18 16 14 11 9 7 4 3 3 4 8 11 14 13 10 3 8 8 2 3 4 6 8 9 12 14 14 12 11
38 33 28 28 30 30 31 28 25 22 18 18 18 19 19 18 15 12 9 7 6 5 5 5 9 10 13 14 12 5 2 3 5 6 6 8 8 9 10 7 8 10 10
44 37 32 26 28 30 31 31 32 30 29 23 19 17 19 18 16 14 11 10 9 7 6 6 9 11 12 12 11 8 5 5 2 3 5 8 7 7 8 8 7 9 12
46 41 34 28 28 30 33 32 33 33 28 19 19 17 20 19 18 15 12 12 10 8 7 8 10 11 13 12 9 5 6 7 8 7 6 10 5 4 7 7 8 11 13
47 43 34 31 29 31 34 35 34 35 29 24 23 20 22 21 20 16 14 12 10 9 8 9 11 12 13 12 9 6 3 3 4 5 7 9 9 6 3 6 7 8 11
Wind_Direction
165 158 159 160 136 102 99 108 102 99 95 92 89 88 90 93 95 95 95 97 92 87 85 83 80 80 81 79 73 67 65 62 73 63 65 62 56 48 53 55 55 56 64
155 159 163 157 126 113 113 109 105 98 95 93 92 94 99 98 94 92 91 95 94 90 88 86 85 86 83 75 72 68 63 58 59 50 66 64 56 48 46 47 44 49 51
161 160 156 146 130 127 126 122 116 115 113 111 111 109 110 106 99 95 94 93 94 93 91 90 89 86 80 74 72 68 57 47 43 49 58 76 66 58 55 51 43 42 42
164 156 151 143 137 139 139 136 132 122 117 116 120 116 116 113 109 103 98 96 96 95 95 93 90 79 77 87 83 63 46 38 30 49 62 61 59 63 61 63 59 55 53
162 155 149 147 142 142 141 131 128 122 118 120 126 120 118 117 112 106 102 100 99 99 98 93 87 85 88 88 76 58 37 33 52 58 62 56 53 51 52 57 54 50 47
156 157 153 152 145 147 139 129 124 118 118 122 124 123 119 115 111 106 103 100 100 101 105 99 85 92 89 86 77 54 35 43 50 57 58 57 52 48 46 47 40 47 52
158 163 157 151 144 142 136 135 128 116 113 113 114 114 114 111 108 105 103 100 98 97 102 103 95 93 88 71 52 46 39 38 47 60 62 57 54 51 50 49 45 43 36
192 170 163 155 149 144 138 132 122 118 114 110 108 109 108 107 106 105 102 101 101 103 107 110 102 94 81 66 51 43 37 39 43 49 61 61 59 50 45 44 42 37 39
175 175 172 164 151 143 138 130 124 122 116 111 108 108 108 108 108 107 106 104 103 106 112 118 109 100 91 81 64 44 36 36 41 46 53 59 57 53 50 47 42 40 38
167 186 179 166 153 145 137 131 127 124 122 118 113 110 110 110 108 109 108 104 102 104 107 112 112 100 80 62 57 52 36 37 35 37 40 39 42 46 44 41 38 49 40
165 161 172 164 155 148 138 132 128 126 125 120 117 113 114 112 108 104 101 98 95 95 91 85 89 91 80 60 52 37 24 27 19 22 28 23 21 22 20 21 35 37 36
172 165 163 164 158 153 145 141 138 136 132 124 121 120 119 115 110 106 105 103 99 92 89 84 80 78 74 49 23 4 7 13 10 9 18 14 20 36 33 31 33 30 25
180 168 170 168 162 157 152 150 149 144 139 131 129 127 128 124 118 115 115 110 101 88 86 75 66 58 51 32 28 26 27 21 16 12 13 13 17 29 37 34 37 32 29
189 178 173 170 163 160 158 158 157 155 149 148 141 141 138 132 129 127 125 112 93 84 75 64 56 50 49 46 26 13 14 15 18 20 18 10 12 9 27 35 33 30 31
195 189 180 160 159 161 161 158 156 163 156 156 157 152 147 150 145 142 131 127 130 126 101 79 50 36 43 36 22 4 3 11 8 6 11 4 4 4 17 31 31 37 32
202 195 185 167 159 165 166 162 159 161 168 161 166 164 158 161 157 157 154 152 143 132 93 75 45 19 7 4 16 43 2 7 358 10 9 8 1 8 14 13 18 30 29
203 196 190 181 171 175 181 173 177 176 178 172 167 173 177 185 184 174 171 161 140 93 57 0 310 304 87 16 36 38 63 7 28 16 23 13 9 5 2 2 6 6 20
203 199 193 186 188 192 186 181 191 190 196 192 181 174 173 173 172 168 174 173 156 40 354 346 4 27 68 25 3 332 308 132 97 52 25 12 1 352 350 352 355 357 34
209 204 193 191 193 190 182 190 198 203 196 192 185 179 180 179 180 188 189 192 182 33 359 358 13 18 5 10 11 3 98 164 147 97 57 9 0 359 358 357 358 359 21
209 210 199 193 193 192 194 196 202 207 202 202 190 184 189 187 183 192 196 196 215 311 42 23 354 349 7 16 12 104 131 157 153 138 47 15 5 358 355 357 360 3 15
208 206 204 199 197 195 199 202 198 200 205 191 189 186 188 190 190 201 209 224 235 245 50 18 356 353 354 9 35 118 160 131 124 77 357 1 3 13 17 10 4 12 14
210 208 210 206 205 200 204 203 205 202 203 198 191 188 193 196 200 211 216 228 236 280 329 345 351 348 352 357 4 204 197 222 292 305 322 346 358 357 0 19 9 10 6
208 211 212 209 205 201 197 198 205 206 209 201 195 193 192 200 206 220 227 245 270 280 299 322 346 351 349 348 348 345 270 236 295 260 310 342 341 346 8 20 19 17 13
213 209 211 211 210 202 198 199 206 208 206 207 200 193 196 202 206 216 232 251 261 279 293 315 334 339 346 345 342 333 316 293 291 250 276 332 346 1 22 28 20 13 8
209 207 212 212 210 203 204 205 207 214 216 214 204 205 203 206 212 217 227 245 260 275 285 306 316 330 340 344 341 324 293 287 296 298 305 336 359 7 12 18 17 17 13
209 210 211 217 213 209 207 206 209 214 214 214 208 209 208 210 214 219 228 238 254 271 279 295 309 325 337 342 340 323 287 263 280 301 312 328 346 350 323 344 351 350 343
Height
1570 1571 1572 1572 1572 1572 1572 1571 1571 1570 1570 1569 1568 1568 1567 1567 1568 1567 1568 1568 1568 1568 1568 1567 1566 1566 1564 1563 1563 1562 1561 1560 1560 1558 1558 1557 1556 1555 1554 1553 1553 1552 1552
1568 1570 1572 1572 1572 1572 1572 1571 1571 1571 1570 1570 1570 1569 1569 1569 1569 1568 1569 1569 1569 1569 1569 1569 1568 1567 1565 1565 1564 1564 1563 1563 1562 1560 1559 1558 1558 1557 1555 1555 1554 1553 1553
1567 1569 1572 1572 1572 1572 1571 1571 1571 1571 1571 1571 1571 1570 1570 1570 1570 1570 1570 1570 1570 1571 1571 1571 1570 1568 1568 1567 1566 1566 1566 1565 1564 1562 1560 1559 1558 1558 1557 1557 1556 1555 1554
1567 1569 1571 1572 1572 1571 1571 1570 1571 1571 1571 1571 1571 1571 1571 1571 1571 1572 1571 1572 1572 1573 1573 1573 1572 1570 1570 1570 1570 1570 1569 1567 1565 1563 1561 1560 1560 1559 1559 1558 1557 1557 1556
1567 1568 1570 1572 1572 1572 1573 1573 1572 1571 1571 1571 1571 1572 1572 1572 1572 1573 1574 1574 1574 1575 1575 1575 1575 1574 1573 1573 1572 1572 1571 1569 1567 1565 1563 1562 1561 1560 1559 1558 1558 1557 1557
1566 1568 1569 1571 1572 1573 1573 1574 1574 1572 1571 1571 1572 1572 1573 1574 1574 1575 1575 1575 1576 1576 1577 1578 1578 1577 1575 1575 1575 1575 1573 1571 1569 1567 1566 1565 1564 1563 1561 1560 1558 1557 1557
1567 1568 1570 1571 1572 1573 1575 1574 1573 1573 1573 1573 1573 1573 1574 1575 1576 1577 1578 1578 1578 1579 1580 1581 1580 1578 1578 1577 1578 1577 1576 1574 1571 1569 1568 1568 1568 1566 1564 1563 1561 1559 1557
1567 1568 1570 1571 1572 1573 1574 1575 1575 1575 1575 1575 1575 1575 1576 1578 1579 1580 1580 1581 1581 1582 1582 1583 1582 1581 1580 1580 1579 1579 1578 1577 1574 1572 1571 1571 1570 1569 1567 1565 1563 1561 1560
1568 1569 1570 1571 1572 1573 1574 1574 1576 1576 1578 1578 1578 1578 1579 1580 1581 1582 1583 1584 1584 1585 1585 1585 1585 1583 1582 1582 1582 1580 1578 1577 1575 1574 1573 1572 1572 1570 1569 1567 1565 1564 1562
1569 1569 1570 1571 1572 1573 1574 1574 1576 1578 1579 1580 1581 1581 1582 1583 1584 1585 1586 1587 1588 1588 1588 1588 1588 1586 1584 1583 1583 1582 1580 1579 1577 1576 1574 1573 1572 1570 1569 1567 1567 1565 1564
1568 1568 1569 1570 1573 1574 1575 1576 1577 1579 1580 1581 1582 1584 1585 1586 1586 1588 1588 1589 1589 1590 1590 1590 1590 1589 1587 1586 1585 1583 1582 1580 1579 1576 1575 1575 1572 1570 1568 1567 1567 1565 1563
1567 1568 1569 1571 1572 1574 1576 1577 1577 1579 1581 1583 1584 1585 1586 1588 1589 1589 1590 1590 1591 1591 1592 1592 1592 1591 1590 1588 1587 1585 1583 1582 1580 1578 1577 1576 1574 1572 1570 1568 1566 1563 1562
1568 1569 1570 1571 1574 1575 1576 1578 1579 1578 1581 1583 1585 1586 1588 1589 1590 1590 1591 1592 1592 1593 1593 1593 1592 1591 1591 1590 1588 1586 1585 1583 1581 1580 1579 1577 1576 1574 1571 1568 1567 1564 1561
1567 1570 1572 1573 1575 1578 1579 1580 1581 1581 1582 1584 1586 1587 1588 1589 1590 1591 1592 1593 1594 1594 1593 1592 1592 1591 1591 1590 1587 1586 1585 1583 1582 1580 1579 1578 1576 1574 1572 1570 1568 1565 1562
1569 1572 1574 1574 1575 1578 1580 1581 1583 1583 1584 1585 1586 1588 1589 1589 1591 1592 1593 1594 1594 1594 1594 1594 1593 1592 1591 1589 1588 1586 1585 1583 1582 1580 1579 1577 1575 1574 1573 1571 1569 1567 1565
1568 1571 1575 1576 1575 1576 1580 1582 1583 1585 1585 1585 1587 1588 1590 1590 1591 1593 1594 1594 1595 1595 1594 1594 1594 1593 1592 1590 1588 1587 1585 1584 1583 1580 1579 1577 1574 1573 1572 1570 1569 1568 1566
1567 1572 1572 1579 1578 1577 1579 1581 1583 1585 1586 1586 1587 1589 1590 1591 1592 1594 1594 1594 1594 1595 1595 1594 1594 1593 1592 1591 1588 1587 1585 1584 1584 1582 1579 1577 1574 1573 1572 1570 1569 1567 1566
1565 1567 1572 1576 1579 1579 1580 1581 1584 1585 1586 1586 1587 1588 1590 1591 1592 1593 1593 1593 1594 1595 1595 1594 1594 1593 1592 1591 1588 1585 1584 1584 1582 1581 1579 1577 1575 1573 1572 1570 1568 1567 1567
1562 1564 1569 1573 1578 1579 1578 1581 1585 1587 1587 1587 1587 1588 1589 1591 1592 1592 1592 1594 1594 1594 1594 1593 1593 1593 1592 1591 1587 1585 1584 1583 1582 1581 1579 1577 1575 1573 1571 1569 1567 1566 1565
1559 1562 1565 1569 1576 1579 1577 1578 1582 1587 1587 1586 1587 1588 1589 1590 1591 1591 1592 1593 1594 1594 1594 1593 1591 1591 1591 1591 1587 1585 1584 1583 1582 1580 1579 1577 1576 1574 1572 1569 1567 1565 1564
1558 1560 1562 1565 1572 1575 1576 1577 1578 1582 1586 1585 1586 1587 1588 1589 1589 1590 1592 1592 1593 1593 1593 1593 1591 1591 1590 1589 1588 1586 1584 1583 1582 1580 1579 1578 1576 1573 1571 1569 1567 1565 1564
1551 1557 1559 1564 1569 1571 1573 1575 1579 1579 1584 1585 1585 1586 1587 1587 1588 1588 1590 1591 1592 1592 1592 1592 1591 1590 1588 1587 1585 1584 1584 1584 1582 1580 1579 1577 1575 1573 1571 1569 1566 1565 1564
1548 1553 1556 1561 1565 1567 1571 1575 1579 1581 1583 1583 1583 1584 1586 1586 1587 1587 1589 1590 1591 1591 1591 1591 1590 1589 1587 1584 1582 1583 1581 1580 1580 1579 1578 1577 1575 1573 1571 1569 1567 1566 1564
1541 1550 1555 1557 1561 1565 1568 1572 1573 1575 1577 1579 1581 1583 1584 1585 1585 1586 1588 1588 1589 1590 1590 1589 1588 1587 1586 1584 1581 1579 1578 1578 1578 1579 1578 1576 1575 1573 1571 1569 1567 1565 1564
1539 1546 1551 1553 1557 1560 1564 1569 1572 1574 1577 1579 1580 1581 1581 1582 1583 1584 1586 1587 1588 1589 1589 1588 1587 1585 1584 1582 1580 1579 1577 1577 1576 1576 1575 1574 1574 1573 1571 1569 1567 1565 1563
1538 1544 1548 1551 1553 1557 1559 1564 1568 1572 1574 1576 1577 1578 1579 1580 1581 1583 1584 1585 1587 1587 1587 1587 1585 1583 1582 1580 1578 1577 1576 1577 1576 1575 1573 1572 1572 1572 1571 1568 1566 1564 1563